Location: Eurasberg
(48.3353°N, 11.0839°E)
Time: 13:51:58
(UTC+00:00)

Timation 1 Rocket - Pass Details

Date: 24 April 2026
Orbit: 895 x 908 km, 70.0° (Epoch: 14 May)

Event Time Altitude Azimuth Distance (km) Brightness Sun altitude
Exits shadow 22:05:09 29° 84° (E) 1,595 5.5 -26.7°
Drops below altitude 10° 22:09:11 10° 46° (NE) 2,601 7.0 -26.9°
Sets 22:11:56 0° 37° (NE) 3,547 7.9 -27.0°
